Flag for Singapore Weather past 2 weeks in Singapore, Singapore

Now
82 °F

Passing clouds.


Feels Like: 91 °F
Forecast: 78 / 90 °F
Wind: 5 mph from Southeast

Location: Singapore / Paya Lebar

Current Time: Sep 4, 2015 at 5:35:59 AM

Latest Report: Sep 4, 2015 at 5:00 AM


Visibility: N/A

Pressure: 29.86 "Hg

Humidity: 84%

Dew point: 77 °F

Location of SingaporeLocation

Historic Weather in Singapore — Graph

°F

Singapore temperature yesterday

Maximum temperature yesterday: 90 °F (at 12:00 PM)
Minimum temperature yesterday: 82 °F (at 5:00 AM)
Average temperature yesterday: 86 °F

Past Weeks' High & Low Weather Summary

 TemperatureHumidityPressure
High91 °F (Aug 20, 3:00 PM)94% (Aug 27, 5:00 AM)29.92 "Hg (Aug 27, 5:00 AM)
Low79 °F (Aug 27, 5:00 AM)55% (Aug 26, 6:00 PM)29.74 "Hg (Aug 22, 4:00 PM)
Average86 °F73%29.84 "Hg
* Reported Aug 19 11:00 PM — Sep 3 11:00 PM, Singapore, Weather by CustomWeather, © 2015

Note: Actual official high and low records may vary slightly from our data, if they occured in-between our weather recording intervals... More about our weather records

Advertising

Singapore weather history for previous 24 hours

 ConditionsComfort  
Time TempWeatherWind HumidityBarometerVisibility
11:00 PM
Thu, Sep 3
86 °FPassing clouds.7 mph79%29.92 "Hg6 mi
10:00 PM86 °FPassing clouds.8 mph75%29.89 "HgN/A
9:00 PM86 °FPassing clouds.9 mph70%29.89 "HgN/A
8:00 PM86 °FPassing clouds.8 mph70%29.86 "Hg5 mi
7:00 PM86 °FPartly sunny.7 mph75%29.83 "Hg4 mi
6:00 PM88 °FScattered showers. Partly sunny.8 mph66%29.83 "Hg4 mi
5:00 PM88 °FPartly sunny.12 mph70%29.80 "Hg4 mi
4:00 PM90 °FPartly sunny.10 mph63%29.80 "Hg4 mi
3:00 PM90 °FPartly sunny.9 mph63%29.83 "Hg4 mi
2:00 PM90 °FBroken clouds.13 mph63%29.86 "Hg4 mi
1:00 PM90 °FBroken clouds.14 mph63%29.89 "Hg3 mi
12:00 PM90 °FPartly sunny.12 mph63%29.89 "Hg3 mi
11:00 AM88 °FBroken clouds.10 mph70%29.92 "Hg3 mi
10:00 AM86 °FBroken clouds.8 mph75%29.92 "Hg3 mi
9:00 AM84 °FPartly sunny.9 mph79%29.89 "Hg3 mi
8:00 AM84 °FPartly sunny.6 mph79%29.89 "Hg3 mi
7:00 AM82 °FPartly sunny.5 mph84%29.86 "Hg3 mi
6:00 AM82 °FPassing clouds.5 mph84%29.83 "Hg4 mi
5:00 AM82 °FPassing clouds.5 mph84%29.83 "Hg4 mi
Weather by CustomWeather, © 2015

See weather overviewHow to use our weather pages